GW2952 Weather Reports


time (UTC)temp
F
wind
direction
speed
knots
gust
knots
rain 1hr
in
rain 24hr
in
rain mn
in
humidity
%
barometer
mb
20260510045003 47 160 0.0 3.5 0.00 0.39 0.00 91 1010.8
20260510044502 47 162 0.9 3.5 0.00 0.39 0.00 91 1010.7
20260510044003 47 143 0.9 2.6 0.00 0.39 0.00 91 1010.5
20260510043523 47 118 0.9 2.6 0.00 0.39 0.00 91 1010.2
20260510043003 47 118 0.9 1.7 0.00 0.39 0.00 91 1010.3
20260510042502 47 136 0.9 1.7 0.00 0.39 0.00 91 1010.3
20260510042003 47 152 0.9 3.5 0.00 0.39 0.00 91 1010.3
20260510041502 46 138 0.9 3.5 0.00 0.39 0.00 91 1010.3
20260510041002 46 85 0.0 1.7 0.00 0.39 0.00 90 1010.4
20260510040502 46 78 0.0 1.7 0.00 0.40 0.00 90 1010.5
20260510040003 46 83 0.0 0.9 0.00 0.40 0.00 90 1010.4
20260510035502 46 0 0.0 0.0 0.00 0.41 0.40 90 1010.3
20260510035002 46 220 0.0 0.9 0.00 0.41 0.40 90 1010.5
20260510034502 45 311 0.0 1.7 0.00 0.41 0.40 90 1010.3
20260510034002 45 31 0.0 1.7 0.00 0.41 0.40 90 1010.4
20260510033502 45 0 0.0 0.0 0.00 0.41 0.40 90 1010.2
20260510033002 45 0 0.0 0.0 0.00 0.41 0.40 90 1010.1
20260510032503 45 0 0.0 0.0 0.00 0.41 0.40 90 1010.2
20260510032003 45 0 0.0 0.0 0.00 0.41 0.40 90 1010.4
20260510031503 45 0 0.0 0.0 0.00 0.41 0.40 90 1010.1
20260510031002 46 118 0.0 0.9 0.00 0.41 0.40 89 1010.4
20260510030523 46 110 0.0 1.7 0.00 0.41 0.40 89 1010.2
20260510030002 46 128 0.0 1.7 0.00 0.41 0.40 89 1010.2
20260510025503 46 216 0.0 1.7 0.00 0.41 0.40 89 1010.2
20260510025002 47 130 0.0 1.7 0.00 0.41 0.40 89 1010.1
20260510024503 47 63 0.0 1.7 0.00 0.41 0.40 89 1010.2
20260510024003 47 55 0.0 0.9 0.00 0.41 0.40 89 1010.3
20260510023503 47 53 0.0 0.9 0.00 0.41 0.40 89 1010.2
20260510023023 47 90 0.0 0.9 0.00 0.41 0.40 89 1010.3
20260510022503 48 136 0.0 0.9 0.00 0.41 0.40 89 1010.3
20260510022002 48 163 0.0 1.7 0.00 0.41 0.40 89 1010.3
20260510021503 48 156 0.0 1.7 0.00 0.41 0.40 89 1010.3
20260510021002 48 127 0.9 2.6 0.00 0.41 0.40 89 1010.3
20260510020524 48 119 0.9 2.6 0.00 0.41 0.40 90 1010.3
20260510020002 48 133 0.9 3.5 0.00 0.41 0.40 89 1010.2
20260510015503 47 133 0.9 3.5 0.00 0.41 0.40 89 1010.2
20260510015023 47 120 0.0 1.7 0.00 0.41 0.40 88 1010.4
20260510014523 47 127 0.0 0.9 0.00 0.41 0.40 88 1010.1
20260510014002 48 118 0.0 0.9 0.00 0.41 0.40 88 1010.1
20260510013502 48 99 0.0 1.7 0.00 0.41 0.40 88 1010.1
20260510013023 48 73 0.0 1.7 0.00 0.41 0.40 88 1010.1
20260510012503 48 92 0.0 1.7 0.00 0.41 0.40 88 1010.0
20260510012002 48 118 0.0 1.7 0.00 0.41 0.40 88 1009.9
20260510011503 48 135 0.9 1.7 0.00 0.41 0.40 87 1010.0
20260510011003 48 130 0.9 1.7 0.00 0.41 0.40 87 1010.1
20260510010524 48 125 0.0 0.9 0.00 0.41 0.40 87 1010.1
20260510010003 49 136 0.0 0.9 0.00 0.41 0.40 86 1010.1
20260510005503 49 125 0.0 0.9 0.00 0.41 0.40 86 1009.7
20260510005003 49 199 0.0 0.9 0.00 0.41 0.40 86 1009.8
20260510004503 49 186 0.0 0.9 0.00 0.41 0.40 86 1009.6
20260510004003 49 181 0.0 0.9 0.00 0.41 0.40 86 1009.9
20260510003503 50 220 0.0 1.7 0.00 0.41 0.40 85 1009.8
20260510003003 50 213 0.0 1.7 0.00 0.41 0.40 85 1009.8
20260510002502 50 194 0.0 1.7 0.00 0.41 0.40 85 1009.7
20260510002003 51 199 0.0 2.6 0.00 0.41 0.40 85 1009.4
20260510001503 51 210 0.9 2.6 0.00 0.41 0.40 85 1009.7
20260510001003 51 214 0.9 2.6 0.00 0.41 0.40 85 1009.4
20260510000502 51 202 0.9 2.6 0.00 0.41 0.40 84 1009.2
20260510000003 51 166 0.9 2.6 0.00 0.41 0.40 84 1009.3
20260509235503 52 171 0.9 3.5 0.00 0.41 0.40 84 1009.3
20260509235003 52 185 1.7 5.2 0.00 0.41 0.40 84 1009.4
20260509234503 52 190 0.9 5.2 0.00 0.41 0.40 84 1009.1
20260509234003 52 206 0.9 6.1 0.00 0.41 0.40 83 1009.0
20260509233502 52 189 1.7 7.0 0.00 0.42 0.40 83 1009.0
20260509233024 53 193 1.7 7.0 0.00 0.42 0.40 83 1009.0
20260509232502 52 200 1.7 5.2 0.00 0.42 0.40 84 1009.1
20260509232003 53 195 1.7 5.2 0.00 0.42 0.40 83 1009.2
20260509231503 53 231 1.7 5.2 0.00 0.42 0.40 84 1008.8
20260509231003 53 230 1.7 5.2 0.00 0.42 0.40 84 1008.9
20260509230524 53 201 1.7 6.1 0.00 0.42 0.40 84 1009.0
20260509230003 53 186 1.7 6.1 0.00 0.42 0.40 84 1009.0
20260509225503 53 197 1.7 5.2 0.00 0.42 0.40 84 1009.0
20260509225003 53 197 1.7 5.2 0.00 0.42 0.40 84 1009.1
20260509224524 53 186 1.7 7.0 0.00 0.42 0.40 84 1008.8
20260509224003 53 192 2.6 7.0 0.00 0.42 0.40 84 1009.1
20260509223503 53 199 2.6 7.8 0.00 0.42 0.40 85 1009.2
20260509223003 53 216 1.7 7.8 0.00 0.42 0.40 85 1008.8
20260509222503 53 240 1.7 9.6 0.00 0.42 0.40 86 1009.0
20260509222003 53 244 1.7 9.6 0.00 0.42 0.40 86 1009.0
20260509221503 53 239 1.7 7.0 0.00 0.42 0.40 86 1009.1
20260509221003 53 259 1.7 8.7 0.00 0.42 0.40 87 1009.0
20260509220503 53 256 1.7 8.7 0.00 0.42 0.40 86 1009.0
20260509220003 53 271 1.7 7.8 0.00 0.42 0.40 87 1009.1
20260509215524 53 262 1.7 5.2 0.00 0.42 0.40 88 1009.2
20260509215003 53 231 1.7 8.7 0.00 0.42 0.40 88 1009.2
20260509214503 52 221 1.7 8.7 0.00 0.42 0.40 88 1009.3
20260509214002 52 218 1.7 8.7 0.00 0.42 0.40 88 1009.1
20260509213503 52 226 2.6 8.7 0.00 0.42 0.40 88 1009.3
20260509213024 51 229 1.7 8.7 0.00 0.42 0.40 88 1009.4
20260509212503 51 234 1.7 8.7 0.00 0.42 0.40 88 1009.5
20260509212003 51 228 1.7 9.6 0.00 0.42 0.40 89 1009.4
20260509211503 51 213 3.5 13.0 0.00 0.42 0.40 88 1009.3
20260509211003 51 228 3.5 13.0 0.00 0.42 0.40 88 1009.3
20260509210503 51 256 2.6 8.7 0.00 0.42 0.40 89 1009.3
20260509210024 51 243 2.6 8.7 0.00 0.42 0.40 90 1009.6
20260509205503 51 251 1.7 11.3 0.00 0.42 0.40 90 1009.2
20260509205003 50 253 2.6 11.3 0.00 0.42 0.40 90 1009.4
20260509204524 50 239 2.6 11.3 0.01 0.42 0.40 90 1009.5
20260509204003 50 229 2.6 8.7 0.01 0.42 0.40 90 1009.3
20260509203503 50 232 1.7 6.1 0.02 0.42 0.40 90 1009.3
20260509203003 50 232 1.7 6.1 0.02 0.42 0.40 90 1009.4
20260509202503 49 226 0.9 3.5 0.03 0.42 0.40 90 1009.3
20260509202003 49 248 0.0 1.7 0.03 0.42 0.40 90 1009.4
20260509201503 49 297 0.9 5.2 0.04 0.42 0.40 90 1009.6
20260509201024 49 274 0.9 5.2 0.04 0.42 0.40 90 1009.5
20260509200503 49 255 0.9 5.2 0.04 0.42 0.40 90 1009.6
20260509200003 49 254 0.9 5.2 0.04 0.42 0.40 90 1009.6
20260509195503 49 251 1.7 6.1 0.05 0.42 0.40 90 1009.7
20260509195003 49 253 1.7 6.1 0.06 0.41 0.40 90 1009.9
20260509194503 49 258 1.7 6.1 0.06 0.41 0.39 90 1009.9
20260509194003 49 256 2.6 13.0 0.07 0.41 0.39 90 1010.0
20260509193524 49 254 2.6 13.0 0.07 0.40 0.39 90 1010.1
20260509193003 49 248 1.7 8.7 0.07 0.40 0.38 90 1010.1
20260509192503 49 242 2.6 9.6 0.07 0.39 0.37 90 1010.2
20260509192003 49 241 3.5 13.0 0.07 0.39 0.37 90 1010.4
20260509191503 48 238 2.6 13.0 0.07 0.38 0.37 90 1010.3
20260509191003 48 234 1.7 6.1 0.08 0.38 0.37 90 1010.3
20260509190503 48 252 1.7 6.1 0.09 0.38 0.36 90 1010.3
20260509190003 48 246 1.7 8.7 0.09 0.37 0.36 90 1010.6
20260509185503 48 236 1.7 8.7 0.09 0.37 0.35 90 1010.5
20260509185003 48 252 1.7 5.2 0.09 0.36 0.34 90 1010.5
20260509184503 48 240 2.6 11.3 0.09 0.35 0.33 90 1010.7
20260509184024 48 225 2.6 11.3 0.09 0.34 0.33 90 1010.7
20260509183503 48 226 2.6 8.7 0.09 0.33 0.31 90 1010.7
20260509183003 48 225 2.6 9.6 0.09 0.33 0.31 90 1010.8
20260509182524 48 213 3.5 11.3 0.10 0.32 0.30 90 1010.9
20260509182003 48 205 2.6 11.3 0.10 0.31 0.30 90 1010.7
20260509181503 49 187 1.7 7.8 0.11 0.31 0.29 90 1010.8
20260509181003 48 185 1.7 6.1 0.11 0.30 0.28 90 1010.5
20260509180524 49 192 2.6 7.8 0.10 0.29 0.28 90 1010.5
20260509180024 49 187 2.6 7.8 0.10 0.28 0.26 90 1010.6
20260509175503 49 185 2.6 9.6 0.09 0.27 0.26 90 1010.7
20260509175003 49 185 3.5 9.6 0.09 0.26 0.25 90 1010.7
20260509174503 49 198 4.3 12.2 0.09 0.26 0.24 90 1010.7
20260509174003 49 197 3.5 12.2 0.09 0.25 0.24 90 1010.8
20260509173503 49 196 2.6 11.3 0.08 0.24 0.23 90 1010.8
20260509173003 49 200 1.7 11.3 0.07 0.23 0.22 90 1010.7
20260509172503 49 183 2.6 11.3 0.07 0.22 0.20 90 1010.8
20260509172003 49 174 2.6 11.3 0.07 0.21 0.20 90 1010.8
20260509171503 49 156 1.7 7.0 0.06 0.20 0.19 90 1010.9
20260509171003 49 178 2.6 7.8 0.06 0.19 0.18 90 1010.7
20260509170504 49 194 3.5 9.6 0.06 0.19 0.17 90 1010.5
20260509170024 49 179 2.6 9.6 0.05 0.18 0.17 90 1010.7
20260509165503 49 168 1.7 8.7 0.05 0.18 0.16 89 1010.8
20260509165003 49 169 1.7 8.7 0.05 0.17 0.16 89 1010.8
20260509164503 49 166 1.7 7.0 0.05 0.17 0.15 90 1010.8
20260509164003 49 172 1.7 7.8 0.04 0.17 0.15 90 1010.7
20260509163503 49 193 1.7 7.8 0.04 0.16 0.15 90 1010.8
20260509163003 49 193 2.6 6.1 0.04 0.16 0.14 89 1010.7
20260509162503 49 181 2.6 7.0 0.03 0.15 0.14 89 1010.6
20260509162003 49 178 2.6 8.7 0.02 0.15 0.13 89 1010.8
20260509161503 49 157 2.6 8.7 0.02 0.14 0.13 89 1010.9
20260509161003 49 159 2.6 7.0 0.02 0.13 0.12 89 1010.7
20260509160503 49 171 2.6 7.8 0.01 0.13 0.11 89 1010.9
20260509160003 49 173 2.6 7.8 0.01 0.13 0.11 90 1011.0
20260509155503 49 169 1.7 7.0 0.01 0.13 0.11 89 1010.8
20260509155003 49 153 1.7 7.0 0.01 0.12 0.11 89 1011.0
20260509154503 49 143 1.7 7.0 0.02 0.12 0.11 89 1011.0
20260509154024 49 142 1.7 5.2 0.02 0.12 0.11 89 1010.9
20260509153524 49 165 1.7 6.1 0.02 0.12 0.11 89 1010.9
20260509153003 48 150 1.7 6.1 0.03 0.12 0.11 89 1010.7
20260509152503 48 129 1.7 5.2 0.03 0.12 0.11 89 1010.5
20260509152003 49 138 1.7 3.5 0.04 0.12 0.11 89 1010.6
20260509151524 49 142 0.9 3.5 0.04 0.12 0.11 90 1010.6
20260509151003 48 137 0.9 3.5 0.04 0.12 0.10 90 1010.7
20260509150503 48 163 0.9 7.0 0.04 0.12 0.10 89 1011.0
20260509150003 48 162 0.9 7.0 0.05 0.12 0.10 89 1011.1
20260509145503 47 147 0.9 2.6 0.05 0.12 0.10 89 1011.1
20260509145003 47 161 0.9 5.2 0.05 0.11 0.10 89 1011.2
20260509144503 47 156 1.7 5.2 0.04 0.11 0.09 89 1011.2
20260509144003 47 149 1.7 5.2 0.05 0.11 0.09 89 1011.4
20260509143524 47 137 1.7 5.2 0.04 0.10 0.08 89 1011.3
20260509143003 47 149 1.7 5.2 0.04 0.09 0.08 89 1011.4
20260509142503 47 153 1.7 3.5 0.04 0.09 0.07 89 1011.0
20260509142003 47 135 1.7 3.5 0.03 0.08 0.07 89 1010.9
20260509141503 47 137 1.7 6.1 0.02 0.08 0.06 89 1011.0
20260509141003 47 138 1.7 6.1 0.02 0.07 0.06 88 1010.8
20260509140524 47 132 1.7 3.5 0.02 0.07 0.06 88 1010.9
20260509140003 47 136 1.7 3.5 0.02 0.07 0.06 88 1010.8
20260509135503 47 140 1.7 3.5 0.02 0.07 0.05 87 1010.6
20260509135003 47 126 1.7 3.5 0.02 0.07 0.05 88 1010.7
20260509134503 47 122 1.7 3.5 0.02 0.06 0.05 87 1010.8
20260509134003 47 128 1.7 3.5 0.01 0.06 0.04 87 1010.8
20260509133503 47 139 1.7 3.5 0.01 0.06 0.04 87 1010.6
20260509133004 47 142 1.7 6.1 0.01 0.06 0.04 86 1010.8
20260509132503 47 137 1.7 6.1 0.01 0.06 0.04 86 1010.9
20260509132003 47 132 0.9 3.5 0.01 0.06 0.04 86 1010.6
20260509131503 47 133 1.7 3.5 0.01 0.06 0.04 86 1010.8
20260509131003 47 136 0.9 2.6 0.01 0.06 0.04 86 1010.9
20260509130524 47 124 0.9 5.2 0.00 0.05 0.04 85 1010.9
20260509130004 47 124 1.7 5.2 0.00 0.05 0.04 85 1010.9
20260509125503 47 137 0.9 5.2 0.00 0.05 0.04 85 1011.0
20260509125003 47 136 1.7 3.5 0.00 0.05 0.04 85 1011.1
20260509124503 47 133 1.7 5.2 0.00 0.05 0.03 84 1011.1
20260509124003 47 138 1.7 5.2 0.00 0.05 0.03 84 1011.3
20260509123524 47 135 1.7 3.5 0.00 0.05 0.03 84 1011.2
20260509123003 47 129 1.7 5.2 0.00 0.05 0.03 83 1011.3
20260509122524 47 121 1.7 5.2 0.00 0.05 0.03 84 1011.1
20260509122003 47 132 1.7 5.2 0.00 0.05 0.03 85 1011.2
20260509121503 47 142 1.7 5.2 0.00 0.05 0.03 86 1011.2
20260509121003 47 140 1.7 5.2 0.00 0.05 0.03 87 1011.1
20260509120503 47 135 1.7 3.5 0.00 0.05 0.03 87 1011.1
20260509120003 47 131 0.9 3.5 0.00 0.05 0.03 88 1011.1
20260509115524 47 142 0.9 2.6 0.00 0.05 0.03 88 1011.2
20260509115003 47 141 0.9 2.6 0.00 0.05 0.03 88 1010.9
20260509114503 46 141 0.9 2.6 0.01 0.05 0.03 88 1010.8
20260509114003 46 138 0.9 2.6 0.01 0.05 0.03 88 1010.8
20260509113503 46 107 0.9 3.5 0.01 0.05 0.03 88 1010.8
20260509113003 46 106 0.9 3.5 0.01 0.05 0.03 88 1011.0
20260509112524 46 133 0.9 2.6 0.01 0.05 0.03 89 1011.2
20260509112003 46 131 0.9 2.6 0.01 0.05 0.03 89 1010.9
20260509111503 46 143 0.9 1.7 0.00 0.04 0.03 88 1011.0
20260509111003 46 148 0.9 1.7 0.00 0.04 0.03 89 1010.8
20260509110503 46 145 0.9 2.6 0.00 0.04 0.03 89 1010.8
20260509110003 46 140 0.9 2.6 0.00 0.04 0.03 89 1010.9
20260509105524 46 134 0.9 2.6 0.00 0.04 0.03 88 1010.9
20260509105003 46 130 0.9 3.5 0.00 0.04 0.03 89 1011.0
20260509104503 46 129 0.9 3.5 0.00 0.04 0.02 89 1010.9
20260509104003 45 119 0.9 2.6 0.00 0.04 0.02 89 1010.9
20260509103503 45 128 1.7 3.5 0.00 0.04 0.02 89 1010.7
20260509103003 45 152 1.7 5.2 0.00 0.04 0.02 89 1010.8
20260509102503 45 109 1.7 5.2 0.00 0.04 0.02 89 1010.8
20260509102003 45 96 0.9 2.6 0.00 0.04 0.02 89 1010.7
20260509101503 45 125 0.0 0.9 0.00 0.04 0.02 89 1011.0
20260509101003 45 165 0.0 1.7 0.00 0.04 0.02 89 1011.2
20260509100503 45 156 0.0 1.7 0.00 0.04 0.02 89 1011.0
20260509100002 45 211 0.0 0.9 0.00 0.04 0.02 89 1011.0
20260509095503 45 144 0.0 1.7 0.00 0.04 0.02 89 1011.0
20260509095003 44 117 0.0 1.7 0.00 0.04 0.02 89 1010.8
20260509094503 44 0 0.0 0.0 0.00 0.04 0.02 89 1011.1
20260509094024 44 0 0.0 0.0 0.00 0.04 0.02 89 1011.0
20260509093503 44 0 0.0 0.0 0.00 0.04 0.02 89 1011.0
20260509093003 45 0 0.0 0.0 0.00 0.04 0.02 89 1011.0
20260509092503 45 145 0.0 0.9 0.00 0.04 0.02 89 1011.1
20260509092003 45 132 0.0 1.7 0.00 0.04 0.02 89 1011.0
20260509091503 45 131 0.0 1.7 0.00 0.04 0.02 89 1011.0
20260509091003 45 168 0.0 0.9 0.00 0.04 0.02 89 1011.0
20260509090524 45 0 0.0 0.0 0.00 0.04 0.02 89 1011.1
20260509090003 45 0 0.0 0.0 0.00 0.04 0.02 89 1011.2
20260509085503 45 0 0.0 0.0 0.00 0.04 0.02 88 1011.5
20260509085024 45 0 0.0 0.0 0.00 0.04 0.02 88 1011.5
20260509084503 45 0 0.0 0.0 0.00 0.04 0.02 88 1011.5
20260509084003 45 0 0.0 0.0 0.00 0.04 0.02 88 1011.5
20260509083503 45 0 0.0 0.0 0.00 0.04 0.02 88 1011.7
20260509083003 45 0 0.0 0.0 0.00 0.04 0.02 88 1011.5
20260509082503 45 0 0.0 0.0 0.00 0.04 0.02 88 1011.4
20260509082003 45 0 0.0 0.0 0.00 0.04 0.02 88 1011.3
20260509081503 44 0 0.0 0.0 0.00 0.04 0.02 88 1011.7
20260509081004 44 0 0.0 0.0 0.00 0.04 0.02 88 1011.6
20260509080503 44 0 0.0 0.0 0.00 0.04 0.02 88 1011.6
20260509080003 44 0 0.0 0.0 0.00 0.04 0.02 88 1011.6
20260509075503 44 0 0.0 0.0 0.00 0.04 0.02 88 1011.7
20260509075003 44 0 0.0 0.0 0.00 0.04 0.02 88 1011.6
20260509074503 45 0 0.0 0.0 0.00 0.04 0.02 88 1011.9
20260509074003 45 114 0.0 1.7 0.00 0.04 0.02 88 1011.8
20260509073503 45 114 0.0 1.7 0.00 0.04 0.02 88 1011.6
20260509073003 45 0 0.0 0.0 0.00 0.04 0.02 88 1011.5
20260509072503 44 0 0.0 0.0 0.00 0.04 0.02 88 1011.6
20260509072003 44 0 0.0 0.0 0.00 0.04 0.02 88 1011.5
20260509071503 44 0 0.0 0.0 0.00 0.04 0.02 87 1011.4
20260509071003 44 0 0.0 0.0 0.00 0.04 0.02 87 1011.5
20260509070503 45 0 0.0 0.0 0.00 0.04 0.02 87 1011.3
20260509070003 45 150 0.0 0.9 0.00 0.04 0.02 87 1011.4
20260509065504 45 150 0.0 0.9 0.00 0.04 0.02 87 1011.5
20260509065003 45 208 0.0 0.9 0.00 0.04 0.02 87 1011.4
20260509064503 45 203 0.0 0.9 0.00 0.04 0.02 87 1011.3
20260509064003 45 337 0.0 0.9 0.00 0.04 0.02 87 1011.2
20260509063524 45 350 0.0 0.9 0.00 0.04 0.02 87 1011.3
20260509063003 45 0 0.0 0.0 0.00 0.04 0.02 87 1011.6
20260509062503 45 336 0.0 0.9 0.01 0.04 0.02 87 1011.7
20260509062024 45 341 0.9 1.7 0.01 0.04 0.02 86 1011.6
20260509061504 45 345 0.9 1.7 0.01 0.04 0.02 86 1011.9
20260509061003 46 352 0.0 1.7 0.00 0.04 0.02 86 1012.1
20260509060503 46 79 0.0 0.9 0.01 0.04 0.02 86 1012.0
20260509060003 46 100 0.9 3.5 0.01 0.05 0.02 86 1011.9
20260509055503 46 112 0.9 3.5 0.01 0.05 0.02 87 1012.0
20260509055003 45 129 0.9 2.6 0.01 0.05 0.02 87 1012.4
20260509054503 45 121 0.9 2.6 0.01 0.05 0.02 87 1012.3
20260509054003 45 127 0.9 1.7 0.01 0.06 0.02 87 1012.2
20260509053503 45 128 0.9 1.7 0.01 0.06 0.02 87 1012.5
20260509053003 45 125 0.9 5.2 0.01 0.06 0.02 87 1012.3
20260509052503 45 125 1.7 5.2 0.00 0.06 0.01 87 1012.4
20260509052003 45 119 1.7 5.2 0.00 0.06 0.01 88 1012.4
20260509051524 45 133 1.7 5.2 0.00 0.06 0.01 88 1012.5
20260509051003 45 151 0.9 3.5 0.00 0.06 0.01 88 1012.6
20260509050524 45 142 0.9 2.6 0.00 0.05 0.01 88 1011.9
20260509050003 45 0 0.0 0.0 0.01 0.05 0.01 86 1012.0
20260509045524 45 148 0.0 0.9 0.01 0.05 0.01 86 1011.8